Theta_e
321 325 326 325 324 322 320 320 321 323 326 324 324 327 327 325 325 325 323 319 316 318 320 318 317 318 317 318 318 312 310 310 310 310 311 311 309 308 308 308 308 307 304 302 303 303 302 303 307 308 309 310 309 309 310 309 308 307 307 307 306 305 306 309 310 310 311 312 310 308 307 306 304 305 306 305 305 306 305 306 306 307 306 305 304 303
319 323 325 325 322 320 320 320 319 319 321 321 321 322 324 325 324 325 321 318 317 318 323 323 318 320 319 319 320 314 310 311 310 310 310 310 309 309 308 308 308 306 303 302 302 303 302 303 304 306 308 310 308 307 308 307 306 306 306 306 305 305 305 307 309 311 312 311 310 309 307 304 302 302 304 303 302 302 302 303 303 303 302 301 300 298
321 324 322 320 320 320 322 321 319 320 320 322 323 321 324 327 325 325 323 318 317 319 325 327 322 321 320 319 320 317 313 311 310 310 310 310 310 309 308 308 308 306 303 303 302 302 302 302 303 304 306 309 309 306 306 307 306 305 305 305 305 306 306 306 308 311 311 309 309 309 306 303 301 299 300 300 298 299 300 300 299 299 298 297 295 294
326 328 324 318 319 321 322 321 320 321 321 324 324 321 325 328 324 325 325 320 317 319 322 324 322 319 318 319 320 318 314 312 311 310 311 312 311 309 308 308 308 305 303 303 302 301 302 302 303 303 305 308 308 306 306 306 306 305 305 305 305 306 305 305 306 309 309 307 306 305 303 302 301 297 296 296 295 296 297 296 295 295 294 293 293 292
325 327 324 321 320 321 322 322 322 321 324 328 328 324 326 327 324 324 324 321 322 324 321 320 323 325 323 321 320 319 315 312 313 312 312 314 314 310 309 308 306 305 303 303 303 302 301 301 302 303 304 307 307 305 305 306 305 305 305 305 304 305 304 303 305 306 306 305 302 299 298 297 296 293 293 293 292 292 293 292 292 292 291 291 291 291
322 321 322 323 322 322 322 322 326 327 324 327 330 328 325 325 325 325 324 323 328 333 327 321 328 336 335 328 324 322 319 316 316 315 313 315 315 312 310 309 306 305 303 302 302 302 301 301 301 302 303 305 307 305 304 305 306 305 305 304 304 304 303 302 303 304 305 305 302 299 296 293 291 290 290 291 290 290 290 290 290 290 290 290 290 290
321 320 321 323 324 325 324 323 328 328 323 325 329 330 327 324 324 324 323 324 331 335 326 321 329 334 331 326 324 325 322 319 318 315 314 314 314 311 310 308 306 305 304 302 302 301 301 301 300 301 302 304 306 304 303 304 305 304 304 304 303 303 302 301 302 303 303 303 300 298 295 292 291 290 289 289 289 289 289 289 289 289 289 289 289 289
322 321 323 324 326 327 325 325 327 325 326 330 328 331 331 325 324 326 324 326 333 333 326 324 328 328 326 324 323 323 324 322 318 315 314 313 311 310 309 308 306 305 304 302 302 302 301 301 300 301 301 303 305 303 302 303 303 303 304 303 303 302 301 301 301 301 301 301 298 295 293 291 290 289 288 288 289 289 289 289 289 288 288 288 288 288
322 323 325 325 324 326 326 328 330 324 325 329 327 331 333 328 329 331 328 328 329 328 328 328 326 326 329 329 325 321 322 323 320 317 314 311 310 310 309 308 306 305 303 302 302 302 301 300 300 301 301 302 303 303 302 302 302 302 302 302 301 301 300 299 298 297 297 298 296 293 291 290 289 288 288 288 288 288 288 288 288 288 288 287 287 288
325 322 324 326 325 326 327 329 330 326 323 325 326 330 334 333 333 331 329 329 328 327 329 328 326 326 329 330 326 322 323 325 321 318 315 311 310 309 308 307 306 305 303 302 301 301 301 301 301 301 301 301 302 302 301 301 300 300 300 299 298 298 297 296 295 295 294 294 294 292 291 289 288 288 287 287 287 287 288 287 287 287 287 287 287 287
321 316 317 324 324 324 326 323 323 325 323 324 328 333 335 333 332 332 330 328 328 327 327 328 327 325 329 333 329 324 326 326 322 320 319 314 311 309 308 306 305 304 303 303 301 300 300 301 301 300 300 300 300 300 300 300 299 298 297 297 296 296 295 295 295 295 294 293 292 291 290 289 288 287 287 287 287 287 287 287 287 287 287 287 287 287
319 319 320 321 320 322 326 321 320 325 324 326 333 333 331 331 332 331 326 325 328 329 328 327 325 323 327 333 332 325 324 324 323 322 322 319 313 309 308 306 305 304 302 302 302 300 299 298 298 298 298 299 299 298 298 298 298 297 296 296 296 295 295 296 296 295 294 292 291 290 290 289 288 288 288 287 287 287 287 287 286 286 286 286 286 287
322 324 324 320 317 321 327 324 322 325 325 327 330 329 327 328 331 331 327 326 327 327 325 323 323 324 325 326 327 325 322 323 325 322 321 320 314 309 308 306 304 303 302 302 301 301 299 297 296 296 297 297 297 297 297 297 297 297 296 296 296 296 295 296 296 295 295 293 291 290 289 289 288 288 288 288 287 287 287 287 287 287 287 286 286 286
326 326 323 319 319 321 324 324 323 324 324 324 324 327 328 327 330 333 330 328 329 328 323 318 322 326 326 326 324 323 321 321 323 322 320 318 314 310 307 305 304 303 302 301 301 300 298 296 296 296 296 296 296 296 296 296 296 296 296 296 297 296 295 296 295 294 294 292 290 290 289 289 288 288 288 288 288 288 288 288 287 287 287 287 287 286
328 328 325 321 321 323 320 321 325 325 323 321 322 327 329 330 335 335 332 331 332 331 322 316 323 330 331 329 323 320 320 319 320 320 317 314 311 309 306 305 304 302 301 301 300 299 297 296 296 295 295 295 295 296 296 295 295 296 296 296 296 296 295 295 294 293 293 291 290 289 289 289 288 288 288 288 288 288 288 288 288 287 287 287 287 286
323 329 329 321 320 322 319 321 324 324 321 321 324 326 327 330 332 330 329 327 325 327 323 320 326 330 327 323 319 317 316 316 317 317 314 313 310 308 306 304 303 302 301 301 300 299 296 295 296 295 295 295 295 295 295 295 295 295 295 295 296 295 294 294 293 292 291 290 289 289 289 288 288 288 288 288 288 288 288 288 288 287 287 287 287 286
324 329 325 317 318 319 319 322 322 323 324 322 323 324 324 327 328 328 328 324 321 326 327 323 326 328 324 321 319 317 316 315 316 314 313 313 309 307 306 304 303 302 301 300 300 298 296 294 295 294 295 295 294 295 295 294 295 295 295 295 295 294 293 293 292 291 291 290 290 289 289 289 288 288 288 288 288 288 287 287 287 287 287 287 287 286
329 329 322 318 321 318 316 321 322 322 324 323 324 323 321 325 329 330 331 328 327 329 327 324 326 327 325 324 320 316 316 319 318 313 311 310 308 307 306 303 303 302 301 300 299 297 295 294 294 294 294 294 295 295 294 294 294 294 295 294 294 294 293 293 292 291 290 290 290 290 289 289 288 288 289 289 288 288 287 287 287 287 287 286 286 286
328 329 323 318 321 318 315 320 322 320 319 322 325 323 324 330 330 328 329 330 331 331 329 329 327 325 324 325 323 318 318 321 319 314 312 310 308 306 305 304 302 301 300 299 299 297 295 294 294 294 294 294 294 294 294 294 294 294 294 294 294 293 293 292 292 291 291 291 290 290 290 289 289 289 289 289 288 287 287 287 287 287 286 286 286 286
327 328 326 318 317 318 316 320 325 322 318 320 320 318 323 329 328 327 327 328 331 331 330 331 328 325 324 324 325 323 321 320 318 314 312 310 308 306 305 304 302 301 300 299 298 297 296 295 294 293 294 294 294 294 294 294 293 293 293 293 293 293 292 292 292 291 291 291 291 290 290 289 289 289 289 288 288 287 287 287 287 287 287 286 286 286
325 326 327 319 316 319 319 321 324 322 319 320 320 320 322 322 323 326 325 326 331 331 331 330 327 327 328 323 321 322 323 320 317 315 313 309 307 306 305 303 302 301 300 299 298 297 295 294 294 293 293 294 294 294 294 293 293 293 293 293 292 292 292 292 292 291 291 291 290 290 289 289 289 289 288 288 287 287 287 287 287 287 287 287 286 286
325 327 328 322 318 320 323 322 319 319 320 320 320 321 321 321 323 326 325 325 326 327 330 330 327 328 329 323 318 318 320 318 315 315 313 310 308 307 305 303 302 301 300 299 299 297 295 294 293 293 293 293 293 293 293 293 293 292 292 292 292 292 291 291 291 291 290 290 290 289 289 289 288 288 288 287 287 287 287 287 287 287 287 287 286 287
326 328 329 325 320 319 321 320 319 320 321 319 320 322 321 320 323 325 326 326 324 324 326 327 327 326 321 320 321 319 320 319 315 314 313 312 309 307 305 304 302 301 300 299 298 297 295 294 293 292 292 292 292 293 293 293 293 292 292 292 291 291 291 291 290 290 290 290 289 289 289 288 288 287 287 287 287 287 287 287 287 287 287 287 287 287
325 326 326 327 324 318 318 320 321 320 319 319 322 323 321 319 320 323 326 327 326 326 324 324 327 324 317 318 321 321 321 321 316 313 313 313 310 307 306 304 303 302 301 300 299 297 295 294 293 291 291 291 291 292 292 292 292 292 292 291 291 291 290 290 290 290 289 289 289 288 288 287 287 287 287 287 287 287 287 287 287 287 287 287 287 287
325 326 326 329 328 324 322 323 322 319 318 320 322 321 318 319 320 321 324 325 324 325 325 325 326 324 319 318 318 319 319 318 317 315 313 313 312 308 306 304 303 302 301 300 299 297 295 293 292 291 291 291 291 291 291 292 292 291 291 291 291 290 290 290 290 289 289 289 288 288 287 287 287 287 287 287 287 287 287 287 287 286 287 287 287 287
325 326 326 327 329 328 327 327 325 321 318 319 321 320 318 319 320 321 323 324 323 324 325 325 324 324 323 319 317 318 318 317 318 318 314 313 312 308 306 305 303 302 301 300 298 297 295 293 292 291 291 291 291 291 291 291 291 291 291 291 290 290 290 289 289 289 288 288 288 287 287 287 287 287 287 287 287 287 287 287 287 287 287 287 287 287
324 323 324 326 327 327 327 326 325 323 320 319 321 320 319 319 319 320 322 323 324 325 324 323 323 324 323 321 320 321 321 319 320 319 316 314 311 309 307 306 304 302 301 300 298 297 296 294 293 292 291 291 290 290 291 291 291 290 290 290 290 290 289 289 289 289 288 288 287 287 287 287 287 287 287 287 287 287 287 287 287 287 287 287 287 287
327 324 323 326 326 325 325 324 323 322 321 321 320 319 319 318 319 321 321 322 324 326 325 322 323 323 322 321 322 323 321 320 319 318 316 313 310 308 306 306 305 303 302 300 299 297 296 295 293 292 291 291 290 290 290 290 290 290 290 290 290 289 289 289 289 288 288 287 287 287 287 287 287 287 287 287 287 287 287 287 287 287 287 287 287 287
327 324 323 325 324 323 323 322 322 322 321 320 320 319 319 318 318 320 320 320 322 324 324 323 324 324 321 320 321 321 320 320 318 315 313 311 310 307 306 306 305 303 302 300 299 298 296 295 294 292 291 291 290 290 290 290 290 290 290 290 289 289 289 289 288 288 287 287 287 287 287 287 287 287 287 287 287 287 287 287 287 287 287 287 286 286
322 322 322 324 323 323 323 321 322 322 321 320 320 319 318 318 318 318 319 319 320 321 321 322 324 323 320 322 323 320 318 317 316 314 312 312 311 309 307 307 305 303 302 300 299 298 297 296 294 293 292 291 290 290 289 289 289 290 289 289 289 289 289 288 288 288 287 287 287 287 287 287 287 287 287 287 287 287 287 287 287 287 287 287 286 286
317 322 324 323 323 323 322 321 322 322 322 322 321 319 318 317 317 317 318 318 319 320 319 320 322 321 319 322 324 321 316 315 315 315 313 312 312 309 307 306 305 303 302 300 300 299 297 296 295 293 292 291 290 290 290 289 289 289 289 289 289 288 288 288 288 288 287 287 286 286 286 286 287 287 287 287 287 287 287 286 286 287 287 286 286 286
316 321 324 323 323 323 322 322 322 322 321 321 321 321 319 318 317 316 317 318 318 319 320 320 321 320 319 321 321 320 318 316 316 315 312 311 311 309 307 306 305 304 302 301 300 299 298 297 296 293 292 291 291 290 290 289 289 289 289 289 289 288 288 288 288 287 287 286 286 286 286 286 286 286 286 286 287 287 286 286 286 287 286 286 286 286
317 320 321 322 323 323 322 323 322 321 322 323 322 322 320 320 318 317 317 317 317 318 319 320 320 318 319 321 321 320 319 318 316 315 312 311 309 307 307 306 304 303 303 302 301 300 299 297 295 294 293 292 292 291 291 290 289 289 289 289 288 288 288 288 288 287 286 286 286 286 285 286 286 285 285 286 286 287 286 286 286 286 286 286 286 286
317 319 319 319 322 323 321 320 321 322 324 324 324 323 322 320 320 319 318 317 316 316 317 319 319 318 319 322 321 320 319 317 315 314 313 311 309 307 306 305 304 304 303 302 301 300 299 297 296 295 294 293 292 292 291 291 290 289 289 289 288 288 288 287 287 287 286 286 286 285 285 285 285 285 285 285 286 286 286 286 286 286 286 286 286 286
316 317 317 317 319 321 319 319 323 324 324 322 321 320 320 320 319 320 320 318 316 316 316 316 317 317 318 320 320 319 319 317 316 315 313 310 308 306 306 305 304 304 303 302 302 301 298 296 296 296 295 294 293 292 292 291 290 290 289 289 289 288 288 287 287 287 286 286 286 285 285 285 285 285 284 284 284 285 286 286 286 286 286 286 286 286
315 315 316 316 317 318 318 320 324 323 321 320 318 313 314 318 320 320 321 320 318 317 317 316 316 315 316 320 321 320 318 315 313 311 309 308 307 306 305 306 305 303 303 302 301 300 298 297 297 297 296 295 294 293 292 291 291 290 289 289 289 288 288 288 287 287 287 286 286 285 285 285 285 284 284 284 284 284 285 286 286 286 286 286 286 286
316 315 315 316 317 318 319 321 321 321 320 321 320 315 314 319 321 320 322 320 317 317 317 316 316 316 316 320 320 316 313 312 311 310 308 306 306 305 304 305 303 302 301 300 299 299 298 298 298 297 296 296 295 294 293 292 291 290 290 289 288 288 288 287 287 287 287 286 286 286 285 285 285 284 284 284 283 284 285 285 286 286 286 286 286 285
315 315 315 317 317 317 319 320 320 321 322 320 319 316 313 314 317 317 320 320 317 317 317 317 317 318 317 317 314 311 312 314 314 314 311 306 305 307 308 306 302 299 298 298 297 297 298 298 298 297 297 296 295 295 294 293 292 290 289 289 288 288 287 287 287 287 287 286 286 286 286 285 285 285 284 284 284 284 284 285 286 286 286 286 286 286
311 313 313 316 317 317 318 320 321 322 321 318 317 313 308 310 315 316 318 319 315 312 312 314 315 316 316 314 310 311 314 314 315 316 312 307 305 307 311 309 301 297 297 298 298 297 297 297 297 297 297 296 296 295 294 293 292 291 289 289 288 288 287 287 287 287 287 287 287 286 286 286 285 285 284 284 284 284 285 285 285 286 286 286 286 286
310 312 312 315 317 317 318 319 319 320 319 317 316 313 307 307 313 318 321 320 312 306 307 312 315 314 313 310 309 312 316 315 318 317 310 304 303 302 303 304 300 296 296 296 297 297 297 297 297 296 296 296 296 295 294 293 292 291 290 289 288 288 288 288 288 288 288 287 287 286 286 286 285 285 285 284 284 285 285 284 284 285 285 285 285 285
310 311 312 314 316 316 318 319 318 320 320 315 313 311 307 307 314 320 320 314 307 305 306 310 314 312 309 308 310 313 311 305 306 306 301 300 301 297 294 295 294 294 295 296 297 298 297 297 297 297 296 296 296 295 294 293 292 291 290 289 288 288 289 289 289 288 288 287 287 287 286 286 286 285 285 285 285 284 284 284 284 284 285 284 284 284
311 311 312 314 315 315 317 318 318 320 318 311 307 305 305 312 318 317 309 303 303 306 307 309 313 309 305 306 308 307 301 295 295 299 299 298 299 296 293 292 292 292 294 295 296 297 296 296 295 295 295 295 295 295 294 293 292 291 290 289 289 291 291 290 289 288 288 287 287 287 286 286 286 286 285 285 285 284 284 283 283 284 284 283 283 282
312 313 312 313 314 315 316 316 318 320 314 307 306 305 308 315 317 311 304 301 301 303 305 307 309 307 304 305 303 298 296 295 295 296 296 295 295 294 293 293 293 292 291 292 294 295 295 295 294 294 294 294 295 295 294 293 292 291 290 290 292 293 292 290 290 289 288 287 287 287 286 286 286 286 285 285 284 284 284 283 283 283 282 282 282 281
314 314 313 314 315 315 317 316 315 314 308 304 307 310 311 312 311 309 310 307 302 301 304 305 304 303 304 304 299 295 295 296 294 293 294 294 293 293 293 291 290 290 290 291 292 293 294 294 293 293 293 293 293 294 293 293 293 291 291 292 293 293 291 290 290 289 288 288 287 287 287 286 286 286 285 285 285 284 284 283 283 282 282 281 280 280
314 312 313 315 313 312 313 313 308 304 302 301 304 306 305 304 303 304 308 308 303 302 302 302 301 302 301 299 296 294 295 294 293 294 295 294 293 292 292 290 288 289 290 290 291 292 293 293 293 292 292 292 293 293 293 293 293 292 292 293 293 292 292 291 290 289 289 288 288 287 287 286 286 286 285 285 285 284 284 283 282 281 281 280 279 279
308 307 311 314 311 306 306 305 303 302 302 303 302 301 300 299 299 302 304 304 302 300 299 300 302 302 300 297 296 295 294 294 294 294 293 293 292 291 290 288 288 288 289 289 290 290 291 292 292 292 292 292 292 292 292 293 293 292 292 293 292 292 292 291 290 290 290 289 289 288 287 287 286 286 285 285 285 284 284 283 283 282 281 280 279 279
304 304 309 312 311 310 309 306 303 301 301 302 302 300 298 298 297 300 302 300 298 298 298 299 301 301 299 298 299 297 294 294 295 294 292 292 292 292 291 288 287 287 289 289 290 290 290 291 290 290 291 291 291 292 292 292 292 291 291 291 291 291 291 291 290 290 290 289 289 289 288 287 287 286 286 285 284 284 283 283 282 282 280 280 279 278
306 306 309 309 307 306 304 300 297 297 297 299 300 299 299 299 297 296 296 295 295 295 296 297 298 299 299 299 298 297 294 293 294 294 292 291 291 292 290 287 285 287 289 290 290 290 290 290 290 290 290 291 290 290 291 291 290 290 290 290 289 289 289 289 289 289 289 289 288 288 288 288 287 287 286 285 285 284 283 283 282 281 281 281 280 279
306 306 308 307 303 301 299 296 296 299 300 299 298 298 299 301 300 295 293 294 295 295 295 295 295 296 297 297 296 297 296 293 292 293 292 291 292 291 288 286 286 287 288 289 290 290 290 290 290 290 290 290 289 289 289 289 289 289 289 288 288 288 288 288 288 288 288 288 287 287 287 287 286 286 286 285 285 284 283 283 282 282 282 282 281 280
304 306 305 304 304 303 302 299 299 303 306 303 300 300 299 299 298 295 293 295 295 295 296 295 293 292 293 292 293 296 297 294 292 293 294 293 292 289 286 285 287 288 287 288 289 289 289 289 289 289 289 289 288 288 288 288 288 288 288 288 287 287 287 287 287 287 287 287 287 286 286 286 286 285 285 285 284 284 283 282 282 281 281 281 280 280
305 306 304 304 306 306 304 300 299 304 309 305 301 300 299 297 297 296 295 295 295 295 296 297 295 293 292 290 289 292 296 294 291 292 295 293 289 287 286 287 288 288 288 288 288 288 288 288 288 288 288 288 287 287 288 288 288 288 288 287 287 287 286 286 286 286 286 286 286 286 285 285 285 284 284 283 283 282 282 281 281 280 280 279 279 278
Wind_Speed
3 3 2 4 7 7 8 9 9 8 6 4 3 3 4 4 5 4 3 4 4 4 6 8 8 9 9 9 9 9 8 9 10 9 8 8 8 9 9 9 8 7 7 13 17 16 15 14 15 17 17 17 18 19 19 19 19 20 20 21 22 22 23 25 26 26 26 26 28 28 28 28 27 26 26 26 25 24 24 23 22 23 22 22 22 22
3 4 7 8 8 8 8 9 9 7 6 6 4 4 4 3 5 5 3 3 2 2 6 5 6 9 9 9 8 7 8 11 13 12 12 11 10 9 9 9 7 6 7 11 14 16 16 15 16 18 19 20 20 20 20 20 20 20 20 21 21 21 23 25 26 26 26 27 28 27 28 29 28 26 26 26 26 25 25 24 24 24 24 24 25 25
2 4 9 10 7 6 7 7 7 8 7 7 5 3 5 4 4 5 4 2 0 2 4 5 5 8 9 9 8 7 11 12 14 16 14 13 13 11 11 10 9 8 8 8 10 15 17 17 18 19 19 21 22 21 21 21 21 21 21 21 21 22 23 24 25 26 27 27 26 27 29 29 28 27 27 27 27 27 27 27 26 26 26 27 28 28
3 6 10 10 7 6 7 7 6 6 5 5 4 3 4 4 2 3 5 4 2 1 2 4 5 7 8 7 9 11 11 9 10 13 12 10 12 13 12 11 12 13 11 9 9 12 17 18 19 20 20 22 23 21 21 22 22 22 22 22 22 23 23 23 24 26 27 28 27 28 28 28 29 29 29 30 30 29 30 30 29 29 28 28 28 28
7 7 6 7 8 8 7 7 6 6 4 4 5 5 4 4 5 6 3 2 3 4 3 3 6 7 6 7 11 8 5 6 7 9 10 9 9 9 9 10 11 13 12 12 11 12 16 19 20 21 22 22 24 22 21 22 22 22 22 22 22 23 22 22 24 26 28 29 30 31 31 30 31 31 31 32 32 31 32 31 30 29 28 28 28 27
9 8 2 4 6 8 8 7 6 7 4 4 4 7 7 6 7 6 1 3 4 5 3 1 3 7 4 5 9 4 1 6 5 7 11 10 7 8 9 10 10 10 10 11 12 13 16 19 20 21 22 23 24 22 20 22 22 22 22 21 22 22 22 22 24 27 28 29 31 33 34 34 33 31 30 32 32 32 32 32 31 29 28 27 27 26
5 7 6 5 6 8 8 7 6 7 5 3 5 6 8 8 7 6 2 1 1 5 3 3 2 7 6 5 9 6 5 9 7 7 11 9 8 10 10 10 10 10 9 9 11 13 16 18 20 21 22 24 25 23 20 21 21 21 21 21 22 23 23 23 25 28 28 30 31 33 35 35 35 33 30 31 32 32 32 32 31 30 28 27 26 26
4 8 8 8 7 7 7 6 6 7 7 4 5 4 6 7 7 6 4 2 3 3 4 2 2 5 9 7 7 8 9 11 9 10 11 9 9 9 9 9 11 11 11 10 10 12 16 19 21 22 23 25 26 24 21 21 21 21 21 21 22 23 24 25 27 29 29 31 33 34 35 34 35 35 34 33 33 33 32 32 31 29 28 26 26 25
2 8 9 10 8 6 6 5 6 9 6 6 5 5 5 5 5 4 4 2 1 2 4 3 2 3 9 6 2 4 7 10 11 13 14 12 11 9 9 9 10 10 11 11 11 12 17 20 22 24 25 25 26 25 22 23 22 21 22 23 24 25 27 28 29 29 29 31 35 36 36 35 33 35 35 34 33 33 32 32 30 29 28 26 25 24
1 6 7 8 7 6 4 1 3 8 6 4 3 6 6 4 4 5 4 3 3 2 5 6 4 3 8 5 2 1 4 9 11 12 12 12 12 11 9 9 9 9 9 9 11 14 18 21 23 24 25 25 26 25 24 24 24 24 26 28 29 29 30 30 28 26 27 31 35 36 37 37 36 35 35 34 34 32 32 31 30 28 27 26 25 24
1 1 1 3 4 5 5 3 1 3 5 5 6 6 7 6 5 4 3 4 2 5 6 9 10 7 6 4 4 4 5 7 8 8 8 8 11 12 10 9 9 8 8 8 9 14 18 21 22 24 25 26 26 25 25 25 26 28 30 31 31 31 30 28 25 24 25 30 35 36 37 39 39 38 37 36 34 33 32 31 30 28 27 25 24 23
4 2 1 0 2 4 6 4 3 3 3 6 5 5 3 4 4 4 4 4 1 7 6 10 12 10 8 6 3 5 5 5 6 7 7 9 11 12 11 10 10 9 9 9 9 11 16 18 21 24 25 26 27 26 26 27 28 30 31 32 32 30 28 26 25 25 26 29 33 35 37 38 39 38 38 37 35 33 32 31 30 28 27 25 24 22
3 3 3 1 1 4 6 3 3 5 4 5 5 6 3 2 3 3 2 0 4 7 4 7 8 6 9 9 6 9 10 7 6 6 7 9 11 11 11 11 11 10 10 11 10 10 13 16 20 24 25 27 28 28 28 29 29 31 32 32 32 29 27 27 26 26 28 30 34 35 36 37 37 37 36 36 35 33 32 31 30 28 27 25 23 22
3 5 1 2 3 3 8 7 3 2 2 5 6 6 5 3 1 3 4 2 4 6 4 3 5 3 6 6 10 15 14 9 5 5 7 8 11 11 11 11 10 10 11 10 11 10 11 16 21 24 26 27 28 29 29 30 31 32 32 32 32 30 28 27 27 28 30 33 34 35 36 36 36 35 35 34 33 32 30 29 28 27 25 24 23 22
5 6 4 8 3 6 11 9 6 6 5 5 5 6 5 5 4 4 4 3 4 4 4 1 3 4 3 3 7 9 8 5 2 4 2 3 6 8 8 9 10 10 10 9 10 10 12 18 22 23 25 27 28 30 31 31 32 33 33 33 33 31 29 29 29 30 33 35 35 35 35 35 35 34 33 32 31 30 29 28 27 25 24 23 22 21
6 7 6 6 2 9 12 6 6 8 3 3 3 5 3 5 5 3 2 4 2 2 3 2 4 5 4 5 6 3 4 4 4 2 4 4 5 7 7 9 10 10 10 9 10 10 12 18 22 23 25 26 28 31 32 33 33 34 34 33 33 32 31 30 31 33 35 36 35 34 35 34 33 33 32 32 30 29 28 27 26 25 24 23 22 21
5 4 3 2 2 5 8 4 4 5 4 2 2 4 4 4 5 2 3 1 2 3 4 4 5 5 3 8 8 4 2 4 4 2 5 5 6 8 8 9 10 10 10 10 10 10 12 17 20 23 26 27 30 32 33 34 34 35 35 34 33 32 31 31 33 34 35 36 35 34 34 34 33 33 32 31 30 29 27 26 25 25 23 22 21 20
5 2 3 2 1 3 2 3 3 1 4 6 4 5 2 2 2 2 1 3 2 4 5 3 7 5 2 6 4 5 3 8 7 5 4 4 7 9 9 9 10 10 9 9 10 10 14 19 21 23 26 29 31 33 33 34 34 34 34 34 34 34 34 34 34 36 36 36 36 35 35 34 34 33 32 31 30 29 28 27 25 24 23 22 21 19
4 2 3 0 2 2 2 4 3 3 2 5 4 4 4 2 1 2 2 2 2 4 5 3 6 6 7 6 1 5 8 11 10 7 6 8 10 10 9 9 9 9 9 9 10 10 13 20 23 25 27 28 31 31 32 33 33 33 33 33 34 34 35 35 35 36 36 36 37 36 35 35 34 33 31 31 30 30 29 27 26 24 23 22 20 19
2 3 3 1 1 1 2 2 4 3 0 2 1 2 2 2 3 4 3 2 3 3 5 4 3 5 7 7 8 10 13 14 12 9 10 12 13 11 10 10 10 11 11 11 12 11 13 20 25 27 28 30 31 32 32 33 33 33 33 33 34 34 34 35 36 36 36 36 36 36 36 35 34 33 32 31 31 30 29 27 26 24 23 22 20 18
2 3 3 1 2 1 2 4 8 10 7 3 3 4 2 1 2 1 2 3 4 3 3 5 8 7 4 5 10 13 13 14 13 12 12 13 12 11 10 11 11 12 12 11 12 11 13 20 24 26 28 29 30 31 32 33 33 33 34 34 35 36 36 36 36 37 37 36 36 37 37 35 34 33 32 32 31 30 28 27 26 24 23 22 20 18
4 3 3 2 2 4 5 6 6 7 7 6 7 8 8 6 4 1 4 3 3 4 4 3 9 11 4 4 8 11 12 12 12 13 13 11 12 12 11 12 13 12 12 12 12 11 13 19 23 25 28 29 31 32 33 34 34 35 35 36 36 36 37 38 38 38 37 37 37 37 36 35 35 34 33 32 31 30 29 27 26 24 23 21 20 17
4 3 4 3 4 5 5 5 1 3 3 2 3 5 7 7 7 6 7 4 3 4 4 2 7 10 1 2 4 6 8 8 9 11 11 10 11 11 11 12 12 11 11 11 11 11 14 19 23 25 28 30 31 32 34 34 35 36 36 36 37 37 38 38 38 38 38 38 37 37 36 36 35 35 34 33 32 30 29 27 26 24 22 21 19 17
4 3 4 1 1 1 3 5 4 4 4 2 3 5 7 8 8 6 5 3 3 6 4 2 7 8 1 2 3 3 4 4 5 9 10 9 8 9 11 11 11 11 10 10 10 10 13 18 21 23 26 29 30 32 34 35 35 35 36 37 37 38 38 38 38 38 38 38 37 37 37 37 36 36 34 34 33 31 29 27 26 24 22 20 19 17
3 4 4 2 1 2 2 3 4 3 2 3 5 6 8 9 7 2 1 1 4 9 8 5 10 8 1 3 4 4 4 3 4 6 8 8 7 8 10 9 10 10 10 11 11 11 13 16 19 23 26 27 29 31 33 34 34 35 37 38 38 38 38 39 39 39 39 39 38 38 38 38 38 37 36 35 33 31 29 28 26 24 22 20 19 17
5 5 6 6 6 7 7 5 3 3 4 3 4 7 10 12 12 7 2 4 10 8 9 9 13 6 2 4 5 4 3 4 6 5 5 7 7 7 8 8 9 11 12 14 14 12 13 14 17 22 25 27 29 31 32 34 34 35 36 37 38 39 39 39 39 39 39 39 39 39 40 40 39 38 37 35 33 31 30 28 26 25 23 21 19 18
3 4 8 11 11 12 12 9 4 8 7 7 10 12 14 15 15 10 6 9 9 2 5 14 15 11 8 3 4 6 4 5 7 5 6 7 7 7 8 9 9 10 10 11 12 11 12 13 15 21 25 27 29 30 32 34 34 35 36 37 38 38 39 40 39 40 40 40 40 41 41 41 40 39 38 36 34 32 31 29 26 25 23 21 20 19
4 5 10 15 15 16 18 14 7 10 11 13 14 14 15 15 15 14 14 15 7 3 10 16 10 13 18 9 7 10 6 6 8 8 9 7 6 7 7 8 9 10 9 10 12 13 15 15 15 19 25 27 27 29 31 33 33 35 36 37 38 39 39 40 40 40 40 40 41 41 42 42 40 39 37 36 34 33 31 29 27 25 24 22 21 19
4 7 11 15 17 18 21 19 11 10 9 11 13 16 17 17 19 20 21 19 10 7 18 16 9 16 21 11 11 12 9 10 13 11 8 5 5 6 7 8 10 11 12 14 16 16 17 16 14 18 23 26 27 29 30 31 32 34 35 37 38 39 40 41 41 41 41 41 41 41 42 41 40 39 38 36 35 34 32 30 28 26 25 23 22 20
2 6 9 12 14 16 21 20 12 9 7 7 11 15 17 20 24 24 21 20 16 16 23 20 14 21 18 7 10 12 10 10 7 4 5 6 7 8 9 11 12 12 14 16 16 15 15 14 13 17 21 23 26 28 29 31 33 35 36 37 38 39 41 41 42 41 41 41 41 41 41 41 40 39 38 38 37 35 33 31 29 28 27 25 23 22
1 4 4 5 6 12 18 16 9 8 8 9 9 13 17 19 19 17 16 17 16 18 24 21 18 20 11 6 8 8 6 4 2 5 8 8 8 9 10 11 12 12 13 13 13 12 12 12 12 14 18 22 25 27 29 30 32 33 34 35 38 40 40 41 42 42 42 41 41 40 40 40 40 40 39 39 38 36 34 32 30 29 28 27 26 24
2 2 1 4 3 11 14 10 8 7 6 8 13 20 21 15 10 11 14 15 15 18 21 16 15 18 9 6 6 5 6 7 8 10 10 8 8 11 12 13 13 12 12 11 11 12 13 13 13 15 20 24 27 29 31 31 30 31 33 36 37 37 38 40 41 41 40 40 39 39 40 40 40 40 40 40 40 38 36 34 32 32 30 29 28 26
3 3 1 3 5 10 8 4 5 3 3 8 15 22 21 13 11 13 14 16 18 17 15 13 15 17 8 6 7 7 7 10 10 9 9 9 9 10 12 13 12 11 11 11 12 13 13 13 16 21 26 28 31 33 34 33 32 33 34 34 33 34 37 39 39 39 38 38 38 39 40 40 40 40 41 41 41 39 37 36 35 34 33 31 29 28
3 5 4 3 4 7 4 6 5 4 9 10 8 9 13 15 18 18 17 19 19 16 14 13 15 13 5 7 10 10 9 10 10 11 11 9 9 11 12 11 10 10 10 10 10 11 11 13 18 23 26 28 30 31 31 31 32 32 31 31 31 33 36 37 36 36 37 37 38 39 39 39 40 41 41 41 40 40 39 39 38 36 34 32 31 30
5 5 4 2 2 4 3 6 3 8 10 6 3 2 6 11 16 19 20 21 20 17 17 18 18 17 10 8 8 9 10 10 7 7 7 7 8 10 10 8 8 9 9 9 9 9 10 13 17 20 23 26 28 28 28 30 31 30 30 32 33 34 35 36 35 35 36 37 37 37 38 39 40 40 40 39 40 40 40 40 39 37 36 34 33 32
7 5 3 2 2 1 2 5 8 5 5 5 3 3 2 2 6 9 13 18 18 17 17 19 21 21 15 8 7 6 6 4 0 2 1 5 7 8 9 10 9 9 9 9 10 11 14 18 21 23 24 25 27 28 30 32 33 32 32 33 35 35 35 35 35 36 37 38 37 37 39 39 39 39 38 39 39 40 41 41 40 39 37 36 34 33
9 7 3 3 4 3 4 7 6 6 11 12 6 3 4 5 7 8 8 13 14 15 16 17 19 20 13 8 6 3 4 4 2 4 3 5 6 7 7 8 9 9 9 11 14 16 20 23 24 23 23 24 27 30 32 32 33 33 32 33 34 35 35 35 36 38 38 38 38 39 39 39 39 39 39 39 40 42 43 43 41 40 38 37 36 35
7 7 7 6 4 4 5 7 4 5 11 10 5 4 4 4 5 8 6 8 6 6 10 14 17 18 11 7 5 4 6 4 3 5 5 4 4 4 4 4 7 10 11 13 15 15 17 20 21 22 23 24 27 30 30 31 32 32 31 31 32 33 33 34 37 38 38 38 39 40 40 40 41 41 40 41 42 44 44 43 42 42 40 39 39 38
2 2 5 6 4 4 6 6 5 7 8 3 3 5 3 2 5 7 2 6 2 3 4 7 12 13 8 7 6 7 6 5 7 5 5 5 4 5 5 4 5 7 11 14 17 18 19 20 20 21 22 23 24 26 27 29 31 31 30 30 31 31 32 36 39 38 39 40 40 40 40 41 42 42 41 42 43 44 44 43 43 43 42 41 41 39
2 1 4 6 6 6 7 6 4 5 5 3 5 5 3 2 6 7 2 6 3 4 5 3 6 6 6 8 7 7 7 7 6 4 5 7 5 4 6 7 7 9 12 15 18 20 21 20 19 19 20 21 22 23 25 27 29 30 29 29 30 31 35 39 40 39 39 39 38 38 40 41 42 42 43 44 44 44 44 44 43 42 42 42 40 38
2 2 4 7 8 9 9 7 4 4 4 3 5 5 3 4 5 5 6 4 1 3 5 2 4 5 7 7 6 5 4 3 2 3 5 8 7 5 6 9 11 13 14 16 16 16 17 16 16 17 18 18 19 20 22 25 27 28 28 27 29 33 38 39 37 36 36 36 36 38 40 41 42 43 43 44 44 43 43 42 42 42 42 42 40 38
3 2 3 6 7 6 7 6 4 5 3 4 4 2 3 4 4 5 4 2 2 3 3 0 3 4 4 4 2 2 1 2 3 4 6 6 7 6 5 8 11 12 13 14 14 14 15 14 13 14 15 15 17 19 21 24 26 26 25 26 29 34 36 35 33 33 34 34 35 37 38 40 41 42 42 42 42 41 41 41 41 41 41 40 39 38
6 5 3 5 5 2 3 5 4 4 4 6 7 3 2 4 4 4 3 1 3 3 1 1 2 4 5 4 3 3 4 4 5 6 6 5 6 6 6 7 9 9 10 12 12 13 15 15 14 15 15 16 17 18 20 22 23 23 23 25 29 30 30 30 30 30 31 32 34 36 37 38 40 40 40 41 41 41 41 40 40 40 39 38 38 37
5 5 4 5 4 3 5 6 3 2 2 3 5 4 4 4 4 4 4 1 1 2 3 2 2 2 5 6 6 5 4 5 5 5 5 5 5 5 5 6 8 9 10 11 12 14 15 16 16 15 15 16 17 17 19 21 21 21 23 23 24 24 24 25 26 26 28 30 32 34 35 36 37 38 39 40 40 40 39 39 39 39 38 38 37 37
4 5 4 3 2 3 4 4 2 1 1 1 1 2 2 1 2 4 4 3 1 1 2 2 2 2 4 6 6 4 3 4 4 4 4 5 5 5 5 6 7 9 10 11 13 14 14 16 17 17 16 16 16 16 17 18 18 20 21 19 18 19 20 21 21 23 25 27 29 31 33 34 35 36 38 39 39 39 39 39 38 38 38 37 37 37
1 1 2 3 1 1 1 1 0 2 3 3 1 1 1 1 1 2 4 4 3 2 2 2 4 4 5 6 6 4 3 5 5 4 4 5 5 5 6 6 7 9 11 12 14 14 14 15 17 17 16 16 15 16 17 17 17 17 16 14 13 15 16 17 19 20 22 24 26 28 29 30 32 33 35 36 37 39 39 39 39 39 38 38 38 38
2 1 2 3 3 3 1 1 0 1 3 3 3 3 0 1 2 2 4 4 4 4 3 3 4 5 5 5 6 6 5 5 6 5 4 5 5 5 5 6 7 9 11 13 15 14 14 16 16 16 16 16 16 16 16 16 16 14 12 11 11 11 13 15 17 18 20 21 23 24 26 28 30 31 32 34 35 36 37 38 38 38 38 39 39 39
2 3 3 2 3 2 1 1 1 3 3 3 2 2 2 1 1 2 3 4 5 5 4 3 4 5 5 4 6 7 6 5 6 6 4 4 4 5 5 6 9 10 10 12 15 14 14 16 16 16 16 15 15 16 16 16 16 16 14 11 10 9 10 12 13 14 16 17 19 21 23 25 27 28 30 32 34 35 36 37 38 39 41 42 42 42
3 4 3 3 3 2 1 1 1 2 4 5 4 4 5 4 2 2 3 4 5 6 5 4 3 3 5 5 6 7 7 5 6 6 6 5 5 5 6 9 11 12 11 12 13 14 13 13 13 14 14 12 11 13 15 15 15 15 14 12 11 10 10 10 11 12 13 14 16 18 20 22 24 26 28 30 32 34 36 37 38 40 42 43 42 42
4 4 3 4 4 2 3 6 7 4 2 5 7 8 8 5 4 4 3 4 5 5 6 6 5 4 4 4 5 8 7 6 5 6 6 6 5 6 8 10 11 11 11 10 10 10 10 10 9 10 11 9 7 7 9 10 10 11 11 11 11 11 11 12 12 13 13 15 16 17 19 21 23 24 26 28 30 32 33 34 36 37 39 40 39 39
4 6 5 5 4 4 6 9 8 4 3 6 9 10 9 6 5 5 4 4 4 4 5 6 5 4 4 4 4 6 7 6 5 6 6 4 4 5 7 9 11 11 10 10 9 8 8 7 7 8 9 8 7 7 7 8 8 8 9 9 9 9 11 12 13 14 15 16 16 17 18 20 21 23 25 27 28 29 31 32 33 34 36 36 36 35
Wind_Direction
118 118 178 200 209 206 201 202 208 207 197 211 220 216 211 218 269 268 254 246 156 152 237 222 225 246 250 250 236 212 200 212 225 229 220 203 195 193 190 188 180 172 161 155 156 159 162 161 160 156 154 153 146 141 140 137 135 134 134 134 131 131 134 135 135 133 134 134 132 128 124 121 118 120 120 116 117 118 118 119 119 118 117 117 114 112
117 172 220 222 213 203 204 210 216 222 230 244 244 252 258 231 254 272 263 257 156 170 258 253 248 258 253 253 247 195 186 215 216 216 218 206 200 197 190 186 170 152 148 151 155 160 163 164 163 157 154 157 151 145 144 141 139 138 137 137 136 140 142 140 142 142 142 141 139 134 129 125 121 121 122 118 117 119 119 119 118 118 117 116 114 112
182 228 239 232 217 207 226 226 216 220 226 236 232 222 251 253 268 298 314 310 66 180 261 288 278 265 258 255 253 206 196 217 214 210 213 201 198 197 188 180 161 152 159 163 163 165 168 168 165 161 158 161 157 149 149 149 148 148 147 145 146 150 149 147 150 150 146 142 141 139 133 130 125 121 121 120 119 120 120 118 117 117 117 116 114 112
203 244 238 225 212 208 238 256 235 221 221 221 203 182 234 252 248 278 299 300 291 232 260 305 300 270 265 264 256 232 214 222 221 218 221 207 201 198 188 179 167 165 169 171 171 170 171 171 169 167 163 164 160 153 154 156 157 157 156 155 155 158 156 155 156 153 147 141 138 137 133 132 127 122 122 121 120 120 119 117 117 116 116 115 112 111
213 229 221 194 199 206 223 249 231 209 239 247 195 185 211 223 213 229 274 324 336 336 322 333 316 278 257 251 256 258 230 231 229 218 226 225 207 188 178 179 174 171 170 170 174 175 174 174 174 171 166 165 163 159 160 163 164 163 162 161 161 163 161 160 159 153 148 143 138 133 130 128 125 122 123 121 118 118 118 116 116 115 115 114 112 110
231 231 217 157 194 208 211 228 212 183 216 276 233 204 207 212 223 232 279 34 6 324 305 62 314 281 272 244 257 294 244 230 222 207 220 219 196 179 179 183 177 174 174 172 173 174 175 175 175 172 168 166 165 165 165 168 170 168 166 165 164 165 163 162 159 154 151 148 144 139 134 130 127 123 122 122 120 120 119 118 117 116 116 114 112 110
221 207 208 196 193 200 208 227 221 176 170 254 248 208 208 216 227 230 218 63 261 268 289 98 165 273 290 260 252 259 244 239 226 219 225 215 197 192 188 182 175 174 174 172 172 172 174 175 174 173 172 169 168 168 168 170 173 172 169 168 167 167 165 162 158 155 153 151 148 145 140 136 133 128 124 125 125 123 122 120 120 119 117 115 113 111
175 174 194 199 189 190 199 221 221 167 146 233 249 177 179 204 216 215 185 177 217 252 322 13 138 269 281 265 243 227 235 252 244 234 233 218 208 201 190 182 177 177 173 169 172 174 177 178 176 174 174 173 170 169 169 170 173 174 171 169 168 166 164 161 158 156 155 154 150 145 141 137 135 131 128 128 127 126 126 124 123 121 119 117 114 112
154 166 183 184 184 193 199 219 198 155 151 240 233 129 131 163 170 142 120 141 293 358 306 281 135 263 271 266 253 204 222 250 247 236 231 217 209 201 192 188 180 177 174 169 172 176 179 179 177 175 174 174 171 170 171 170 171 172 168 164 163 161 159 156 154 153 155 157 152 147 143 137 134 132 131 131 130 130 130 127 125 124 122 120 117 114
176 183 181 166 175 197 195 230 172 161 187 218 139 84 67 70 75 75 92 89 29 331 242 220 174 240 268 243 189 188 227 242 243 240 232 214 204 201 192 186 178 172 171 170 171 174 177 177 176 174 173 173 171 171 172 170 169 166 161 158 156 155 154 153 154 156 158 158 154 150 146 140 136 135 134 133 133 133 133 129 128 127 125 124 120 117
302 253 182 142 169 177 144 90 61 174 181 138 90 58 39 23 31 42 51 77 47 274 231 199 186 201 267 262 186 203 223 221 227 244 239 205 197 200 192 183 178 170 167 168 167 170 174 174 173 172 170 170 171 171 171 170 168 165 159 156 155 156 158 159 163 166 166 164 158 153 149 144 141 140 139 138 137 136 136 133 132 132 129 127 123 120
341 355 239 234 162 122 98 79 16 11 95 101 88 80 60 349 13 22 3 56 206 258 229 199 190 189 234 260 228 234 252 232 216 230 231 206 199 198 191 183 178 170 167 167 164 166 168 168 169 169 168 168 169 171 171 170 169 167 163 161 159 161 165 168 171 173 172 170 163 155 152 149 146 146 145 144 142 142 140 138 137 136 133 130 127 124
312 239 220 323 275 136 113 97 11 359 30 90 108 110 118 287 356 3 309 180 224 257 250 195 178 195 236 251 254 257 267 254 221 225 230 209 200 195 186 182 177 171 169 168 168 168 169 170 170 170 169 169 170 172 172 171 171 169 168 167 165 165 169 172 174 175 174 174 167 159 155 153 151 151 150 148 146 146 144 142 141 139 137 134 132 129
272 297 243 166 281 191 157 161 185 246 170 146 141 138 155 181 261 262 245 256 255 266 283 185 160 230 270 266 244 245 257 256 232 247 244 210 195 190 182 176 173 173 173 172 172 171 175 176 175 174 171 170 172 173 173 172 172 171 171 172 169 168 171 174 176 176 175 174 169 162 159 157 155 155 153 151 150 149 148 146 144 142 140 138 135 133
208 286 209 181 213 188 185 190 168 141 157 178 149 136 154 157 181 225 207 225 258 276 297 259 160 201 220 249 239 243 269 288 302 281 246 175 176 167 161 163 168 176 176 174 176 176 179 178 177 176 174 172 173 174 174 174 174 173 173 174 173 170 172 175 176 176 174 172 168 164 162 161 160 158 156 154 153 152 150 149 147 145 142 140 139 136
192 256 224 185 161 169 186 195 128 112 142 228 116 117 182 183 184 232 207 186 206 297 284 217 215 221 212 260 262 262 302 318 344 348 132 132 142 142 154 169 173 180 178 176 179 177 179 178 178 178 176 175 175 175 176 176 176 176 175 175 175 173 173 175 175 174 172 170 168 166 165 164 163 161 158 157 157 155 153 152 150 147 146 144 141 138
178 270 271 93 58 177 186 175 143 151 176 174 133 172 203 173 163 215 273 5 63 282 261 194 242 285 307 275 251 193 256 288 311 276 171 166 158 159 177 182 179 183 181 180 179 174 175 178 180 181 179 178 178 178 179 179 178 178 176 175 174 173 173 174 174 173 171 169 168 167 167 167 166 165 163 161 160 159 157 155 153 150 149 147 143 140
161 249 285 117 150 244 206 114 86 30 139 132 184 202 148 69 98 127 257 341 32 264 270 202 234 264 259 267 254 141 211 258 257 238 204 185 180 187 194 187 185 183 177 177 173 171 175 179 184 185 184 183 182 182 181 180 180 179 177 176 174 173 173 174 174 173 172 171 170 170 170 171 170 169 168 165 163 162 160 159 157 155 152 149 146 144
153 193 291 125 185 275 10 109 95 0 97 134 191 195 119 116 201 127 183 238 191 251 285 244 230 234 213 224 183 162 212 235 236 220 208 206 199 201 199 187 184 176 172 177 175 176 180 183 186 186 185 185 184 184 181 179 179 178 178 177 176 175 174 175 175 174 174 174 173 173 174 174 174 174 172 169 167 166 164 162 161 158 154 152 150 148
144 199 255 323 221 260 24 132 165 204 278 62 103 170 113 136 174 165 180 173 160 229 278 276 253 238 218 197 178 193 210 217 217 205 210 216 207 202 197 184 182 181 183 185 182 184 184 184 186 185 184 184 183 183 181 179 179 178 177 178 177 176 175 176 177 176 176 177 176 175 176 177 178 177 175 173 170 169 168 165 163 160 157 155 153 150
120 210 218 314 330 192 181 196 188 186 182 154 151 175 178 123 117 180 218 158 148 190 236 265 271 259 227 185 185 194 206 212 208 200 211 220 210 203 196 185 186 188 189 188 184 185 184 183 184 183 183 183 182 182 180 179 179 178 178 179 178 177 177 177 178 178 178 178 178 178 178 179 180 179 177 174 173 172 170 167 165 163 160 158 156 152
185 197 162 159 230 208 222 239 212 189 180 178 183 184 181 168 142 188 249 211 157 200 200 212 272 268 230 182 195 194 203 211 204 200 212 218 208 203 197 190 191 189 189 190 185 183 182 179 178 179 179 180 180 180 180 180 180 179 180 180 180 179 179 179 180 180 180 180 180 180 180 181 181 179 177 176 175 174 172 170 168 166 164 161 157 154
146 128 151 180 201 207 244 273 257 135 123 133 186 183 177 181 173 185 228 220 158 234 225 151 277 276 244 164 227 217 217 217 204 201 210 217 209 202 197 192 192 191 187 186 183 181 180 177 176 176 176 178 180 180 180 180 180 181 181 181 181 181 181 182 182 182 182 181 182 182 181 181 181 179 179 178 177 176 174 172 170 169 167 163 159 156
78 113 176 209 353 18 332 333 3 45 86 109 222 189 182 203 200 194 213 183 164 225 202 159 259 266 332 352 297 293 272 243 213 206 208 217 212 197 196 192 187 187 181 178 179 176 175 175 174 176 178 179 180 180 181 181 181 181 181 181 182 182 182 183 183 184 183 183 183 183 182 182 180 180 181 180 179 178 176 174 172 171 169 166 163 160
159 172 155 124 310 325 340 332 338 337 173 200 225 196 193 209 205 215 282 119 244 229 174 183 249 246 295 328 329 357 340 302 263 229 213 216 211 197 195 189 183 180 175 176 177 172 174 176 178 181 182 181 181 181 181 181 181 181 182 183 183 183 183 185 185 185 185 185 184 183 183 182 182 183 183 183 182 180 178 177 175 172 171 170 168 164
166 176 156 160 206 223 228 226 209 192 182 210 223 189 194 203 196 201 218 214 241 229 161 200 244 248 11 337 312 327 334 292 286 274 236 225 215 198 187 183 182 181 181 182 179 176 178 182 184 184 183 183 183 182 181 182 182 182 182 183 184 184 184 185 186 187 187 186 185 184 184 184 184 185 186 185 184 182 181 180 177 174 174 175 173 169
128 190 181 181 201 218 234 241 169 139 157 201 211 194 196 204 197 195 214 222 226 193 188 225 238 254 268 266 272 275 247 244 267 261 242 233 213 197 187 183 183 183 186 182 175 176 179 184 189 187 186 187 185 184 183 183 183 182 182 183 185 186 185 185 187 188 188 188 187 186 186 186 187 187 188 187 186 184 184 182 180 178 177 178 177 174
115 195 195 192 206 221 238 245 187 153 182 201 203 200 201 202 196 195 214 223 199 125 248 240 215 243 255 231 223 246 224 226 246 235 234 232 207 197 182 174 178 177 178 179 179 184 186 189 192 189 188 187 185 185 185 185 184 184 183 184 185 186 187 187 188 189 189 189 189 189 189 189 189 189 190 189 187 187 187 184 183 182 180 180 179 179
131 197 200 200 214 223 235 241 210 179 200 203 199 204 203 198 199 204 215 222 198 192 248 248 193 229 250 230 216 229 205 213 229 219 214 205 185 183 166 172 186 183 180 185 189 192 191 192 191 189 189 186 184 185 185 185 186 185 186 186 186 188 188 188 189 190 190 191 192 192 191 190 190 191 191 190 189 190 189 186 185 184 184 183 182 181
156 209 202 198 216 228 235 238 216 187 206 218 209 210 208 203 204 206 213 220 214 219 242 248 234 245 252 212 208 225 209 215 223 177 179 190 185 179 175 187 196 192 191 192 194 195 193 192 191 189 188 186 186 187 185 186 188 188 188 188 188 189 189 190 190 191 192 194 194 194 193 191 191 192 192 192 192 192 191 189 188 187 187 186 184 184
193 227 203 167 208 238 242 240 217 193 212 234 235 226 220 215 211 211 215 220 220 228 240 247 252 259 253 176 202 222 189 176 165 177 201 206 190 180 184 198 199 198 201 198 193 192 189 189 188 186 188 190 190 190 190 191 191 190 191 190 190 191 191 191 192 193 195 196 196 195 194 193 192 193 194 194 194 195 194 191 191 191 191 189 187 187
159 222 28 86 196 245 249 236 211 206 223 247 255 245 233 218 206 213 219 217 215 226 239 245 252 257 245 174 197 195 156 181 204 206 213 211 193 185 191 201 201 198 199 195 188 187 187 188 184 183 190 193 193 194 195 195 193 192 194 194 193 192 191 193 195 196 197 197 196 196 195 194 193 194 196 197 197 197 196 194 195 195 194 192 191 191
158 191 183 136 210 250 254 192 167 178 218 241 248 246 238 215 199 213 224 224 217 218 229 231 238 250 240 171 204 210 190 205 212 206 210 207 195 193 198 201 198 194 193 190 189 189 188 189 189 190 193 194 195 198 198 195 194 196 198 196 194 193 193 195 197 198 198 198 198 198 197 195 195 196 198 199 199 199 197 197 199 199 197 196 195 195
173 200 210 172 208 247 225 109 110 191 227 238 243 238 227 210 206 214 223 227 220 217 227 238 248 255 224 178 210 214 202 211 214 211 212 199 184 194 203 199 190 189 190 188 190 192 190 192 195 197 197 197 199 199 198 197 198 199 199 196 196 196 196 198 198 199 199 200 200 200 198 197 197 198 200 201 201 201 200 201 203 202 201 200 199 199
187 208 216 168 200 246 138 109 181 220 227 252 353 4 233 212 207 217 229 233 226 220 229 242 252 253 234 209 220 217 211 217 223 228 222 192 177 183 185 185 188 190 190 186 187 193 194 195 195 196 198 200 199 197 195 198 199 199 198 198 198 199 199 199 200 200 202 202 203 202 200 200 201 201 202 203 203 203 203 205 206 205 204 204 204 204
185 197 201 163 191 229 117 182 223 249 287 289 328 10 337 137 172 209 239 245 235 223 226 234 243 247 242 231 231 229 217 203 92 348 236 171 170 170 173 184 190 189 191 188 188 191 193 195 196 196 197 196 194 194 196 198 198 197 198 199 199 200 200 200 201 202 204 205 204 203 203 202 203 203 204 204 205 205 206 208 208 208 208 208 208 209
187 184 183 198 203 196 210 229 244 314 302 278 254 190 172 159 161 177 224 250 236 221 224 230 240 246 240 223 219 198 137 119 63 326 276 190 177 170 175 183 178 182 193 192 195 200 199 200 200 197 195 192 192 195 198 198 197 196 197 198 199 200 200 200 203 205 206 206 206 206 205 205 205 206 206 206 207 208 209 210 210 211 211 210 212 212
195 190 187 200 205 191 220 243 248 267 269 265 249 215 191 169 163 165 207 253 242 223 230 228 236 242 227 198 191 143 114 133 214 254 250 220 182 140 141 165 170 177 183 182 188 197 198 198 198 195 192 190 193 198 199 197 196 195 195 196 198 199 199 202 206 208 207 208 209 208 208 208 209 209 208 209 210 211 212 212 213 214 214 214 215 216
178 189 179 194 205 190 210 230 226 234 249 237 223 248 246 156 131 118 182 260 271 345 294 234 236 242 210 172 167 141 142 200 223 225 214 196 173 142 142 146 143 154 166 173 178 180 182 184 184 183 186 188 192 198 198 197 194 192 193 196 197 197 200 206 210 210 210 212 212 211 211 211 212 212 212 212 214 215 216 216 216 216 217 218 219 220
159 164 177 201 216 208 214 231 231 242 256 201 201 240 254 161 127 115 200 258 272 331 312 235 223 224 169 162 168 158 176 212 220 214 190 167 147 132 146 150 147 150 153 159 165 166 166 167 167 169 178 187 192 195 195 194 192 191 194 196 195 198 206 212 214 213 214 215 214 213 214 214 214 215 215 217 218 219 220 220 219 218 219 220 221 221
187 195 190 210 221 217 220 234 246 252 250 199 196 220 199 137 131 169 216 239 261 295 292 226 187 185 162 164 174 175 206 241 186 153 151 140 128 122 141 144 138 135 133 135 142 147 147 152 161 169 178 187 190 191 192 191 189 191 195 195 196 205 214 218 217 217 217 217 217 217 217 217 218 219 219 221 222 222 222 223 222 222 222 222 222 221
173 174 195 212 220 224 222 227 248 264 240 153 145 202 182 150 175 205 206 176 174 242 295 0 171 174 147 132 132 142 121 12 48 85 94 109 120 120 118 112 102 99 106 116 126 135 139 143 153 163 172 180 185 188 190 189 189 191 193 194 204 217 222 221 220 220 220 219 220 220 220 221 221 222 222 223 223 223 224 225 225 227 227 225 223 223
166 161 196 209 199 191 212 216 232 250 209 145 128 139 181 186 197 188 154 158 201 197 164 84 156 162 142 113 93 112 106 69 56 69 74 80 95 97 95 98 99 102 110 117 127 139 143 143 148 156 163 170 179 185 187 188 189 189 192 202 216 225 226 224 224 224 223 223 223 224 224 224 224 224 224 224 224 225 226 227 227 228 228 227 226 225
177 171 196 206 179 154 193 215 225 223 204 152 132 157 190 192 184 169 150 126 166 165 143 94 80 142 146 132 124 125 109 91 93 98 92 91 99 104 101 101 109 118 123 128 139 149 151 149 150 154 158 165 174 180 185 188 189 189 197 212 224 227 226 227 227 226 226 226 227 227 227 227 227 226 226 226 226 226 227 227 227 227 228 228 227 226
193 175 168 175 171 157 182 214 255 326 285 292 123 182 197 138 146 162 143 108 108 188 143 107 113 131 130 130 130 119 104 113 119 113 114 120 121 117 112 113 123 131 134 139 148 157 161 158 156 157 160 168 176 180 185 191 192 195 206 219 226 226 228 229 226 225 227 228 229 230 230 229 228 228 228 228 228 227 227 227 226 226 227 227 226 226
210 175 113 108 153 166 127 148 320 328 302 305 327 224 176 66 74 131 113 104 134 158 110 119 151 152 141 136 125 106 120 141 127 106 115 124 118 109 111 119 130 139 144 149 154 161 164 159 158 161 163 169 179 183 187 193 197 201 212 221 224 227 230 228 226 226 228 229 230 230 230 229 229 229 229 230 230 230 230 229 228 227 227 226 226 227
274 218 89 98 172 180 128 117 169 307 298 313 338 330 294 19 5 60 100 114 129 122 105 122 139 138 136 134 126 127 148 149 130 117 117 121 127 133 128 130 144 154 159 159 159 163 164 160 161 165 169 174 181 183 186 192 198 205 215 220 221 222 224 223 224 226 227 229 230 230 229 229 229 229 229 229 229 229 230 230 230 228 226 226 225 225
211 160 129 126 161 150 97 273 290 320 302 292 309 298 248 208 33 60 94 120 119 105 91 89 113 125 132 137 139 139 149 154 142 136 139 141 142 144 144 150 157 160 163 166 167 168 169 170 171 175 180 183 186 189 192 196 201 208 213 217 220 219 217 219 222 225 229 231 231 231 231 231 231 231 230 229 229 229 228 229 229 228 229 230 229 227
143 147 160 137 120 101 340 244 150 11 321 290 271 261 250 226 180 100 85 104 111 106 95 75 68 112 141 153 151 140 145 169 166 146 145 153 154 159 166 165 162 159 160 167 173 177 181 183 183 186 191 193 196 202 205 207 212 216 219 223 228 230 230 229 229 231 234 235 234 235 235 234 234 234 234 233 232 232 231 232 232 233 235 237 237 235
127 154 165 120 129 185 205 184 168 148 203 238 231 228 233 220 164 135 117 109 116 126 121 99 71 68 100 130 151 148 151 168 168 151 150 158 163 167 166 159 155 157 159 161 170 182 192 198 201 207 213 216 225 233 231 230 234 238 242 245 246 247 247 245 241 239 238 237 237 237 236 236 237 236 236 236 236 235 235 235 236 238 240 242 242 241
158 180 177 150 170 211 187 174 173 158 168 207 211 210 212 196 161 164 171 154 152 160 145 126 112 98 84 78 113 140 148 156 156 145 139 143 148 149 154 156 156 158 163 167 174 185 198 207 217 229 238 243 250 258 257 255 256 258 259 260 256 251 249 246 243 242 241 240 241 241 240 241 240 239 239 239 239 239 238 238 239 240 242 244 245 246